Alliance, NE

2:18 PM MDT on May 22, 2018 (GMT -0600)
Alliance Municipal

Weather History for KAIA - July, 2014

Change the Weather History Date:

Wednesday, July 30, 2014

  Actual Average Record
Temperature  
Mean Temperature 69 °F 73 °F  
Max Temperature 81 °F 89 °F 103 °F (2001)
Min Temperature 57 °F 57 °F 40 °F (2009)
Degree Days  
Heating Degree Days 0 0  
Month to date heating degree days 27 5  
Since 1 June heating degree days 126 98  
Since 1 July heating degree days 27 5  
Cooling Degree Days 4 8  
Month to date cooling degree days 219 228  
Year to date cooling degree days 269 326  
Since 1 June cooling degree days 255 316  
Growing Degree Days 19 (Base 50)    
Moisture  
Dew Point 53 °F    
Average Humidity 60    
Maximum Humidity 84    
Minimum Humidity 36    
Precipitation  
Precipitation 0.00 in 0.06 in 1.95 in (1898)
Month to date precipitation 0.12 2.25  
Year to date precipitation 12.30 10.64  
Sea Level Pressure  
Sea Level Pressure 30.15 in    
Wind  
Wind Speed 5 mph (NNW)    
Max Wind Speed 14 mph    
Max Gust Speed 20 mph    
Visibility 10 miles    
Events      
T = Trace of Precipitation, MM = Missing Value Source: NWS Daily Summary

Daily Weather History Graph

Daily Weather History Graph

Search for Another Location

Airport or City:

Astronomy

Jul. 30, 2014 Rise Set
Actual Time 5:42 AM MDT 8:12 PM MDT
Civil Twilight 5:10 AM MDT 8:43 PM MDT
Nautical Twilight 4:31 AM MDT 9:23 PM MDT
Astronomical Twilight 3:46 AM MDT 10:07 PM MDT
Moon 9:20 AM MDT (7/30) 9:50 PM MDT (7/30)
Length of Visible Light 15h 32m
Length of Day
14h 29m
Waxing Crescent, 13% of the Moon is Illuminated
Jul 30
Waxing Crescent
Aug 3
First Quarter
Aug 10
Full
Aug 17
Last Quarter
Aug 25
New

Hourly Weather History & Observations

Time (MDT) Temp. Dew Point Humidity Pressure Visibility Wind Dir Wind Speed Gust Speed Precip Events Conditions
12:53 AM 63.0 °F 54.0 °F 72% 30.14 in 10.0 mi NE 4.6 mph - N/A   Overcast
1:53 AM 64.0 °F 53.1 °F 67% 30.12 in 10.0 mi ENE 4.6 mph - N/A   Overcast
2:49 AM 62.6 °F 53.6 °F 72% 30.24 in 10.0 mi NNE 3.5 mph - N/A   Overcast
2:53 AM 62.1 °F 53.1 °F 72% 30.12 in 10.0 mi NNE 4.6 mph - N/A   Overcast
3:11 AM 61.0 °F 53.1 °F 75% 30.24 in 10.0 mi NNE 4.6 mph - N/A   Scattered Clouds
3:53 AM 62.1 °F 53.1 °F 72% 30.12 in 10.0 mi Calm Calm - N/A   Overcast
4:53 AM 60.1 °F 54.0 °F 80% 30.14 in 10.0 mi North 6.9 mph - N/A   Partly Cloudy
5:53 AM 59.0 °F 54.0 °F 83% 30.16 in 10.0 mi NNE 4.6 mph - N/A   Partly Cloudy
6:53 AM 62.1 °F 54.0 °F 75% 30.15 in 10.0 mi North 3.5 mph - N/A   Clear
7:53 AM 66.9 °F 55.0 °F 66% 30.16 in 10.0 mi Calm Calm - N/A   Clear
8:53 AM 68.0 °F 55.9 °F 65% 30.16 in 10.0 mi Calm Calm - N/A   Clear
9:53 AM 71.1 °F 57.0 °F 61% 30.15 in 10.0 mi NW 4.6 mph - N/A   Partly Cloudy
10:53 AM 75.2 °F 51.8 °F 44% 30.26 in 10.0 mi Variable 5.8 mph - N/A   Partly Cloudy
11:53 AM 77.0 °F 50.0 °F 39% 30.13 in 10.0 mi North 9.2 mph - N/A   Scattered Clouds
12:53 PM 77.0 °F 48.9 °F 37% 30.13 in 10.0 mi NE 4.6 mph - N/A   Mostly Cloudy
1:53 PM 77.0 °F 50.0 °F 39% 30.12 in 10.0 mi NNE 6.9 mph - N/A   Clear
2:53 PM 77.0 °F 51.1 °F 40% 30.12 in 10.0 mi SW 4.6 mph - N/A   Overcast
3:53 PM 79.0 °F 51.1 °F 38% 30.11 in 10.0 mi SSE 5.8 mph - N/A   Mostly Cloudy
4:53 PM 78.8 °F 50.0 °F 36% 30.21 in 10.0 mi Variable 4.6 mph - N/A   Scattered Clouds
5:53 PM 78.8 °F 51.8 °F 39% 30.20 in 10.0 mi SSW 6.9 mph - N/A   Overcast
6:53 PM 75.9 °F 50.0 °F 40% 30.09 in 10.0 mi WSW 8.1 mph - N/A   Clear
7:53 PM 70.0 °F 51.1 °F 51% 30.09 in 10.0 mi WSW 8.1 mph - N/A   Clear
8:53 PM 61.0 °F 52.0 °F 72% 30.11 in 10.0 mi WSW 8.1 mph - N/A   Clear
10:53 PM 61.0 °F 55.9 °F 83% 30.10 in 10.0 mi WSW 6.9 mph - N/A   Clear
11:53 PM 60.8 °F 55.4 °F 82% 30.21 in 10.0 mi West 5.8 mph - N/A   Clear